{"data":{"norad_id":60137,"epoch":"2026-09-21T21:24:55.107072Z","epoch_age_seconds":61400,"freshness":"FRESH","line1":"1 60137U 24120C   26264.89230448 -.00000630  00000+0 -75231-5 0  9997","line2":"2 60137  53.1591 125.1852 0001281  86.2079 273.9071 15.34392061126463","mean_motion":15.34392061,"eccentricity":0.0001281,"inclination_deg":53.1591,"raan_deg":125.1852,"arg_perigee_deg":86.2079,"mean_anomaly_deg":273.9071,"bstar":-7.5231e-6,"rev_number":12646,"period_min":93.848243653028,"perigee_km":461.85052203243,"apogee_km":463.60315134739,"semimajor_km":6840.8638366899,"source":"CELESTRAK","updated_at":"2026-09-22T09:00:49.176652Z"}}